Location: Copper Breaks State Park
(34.1132°N, 99.7492°W)
Time: 16:16:00
(UTC-05:00)

Amateur Radio Satellites - All Passes

Search period start: 30 July 2014 15:46
Search period end: 31 July 2014 15:46
Location: Copper Breaks State Park, 34.1132°N, 99.7492°W

Satellite Date Start Highest point End Downlink Frequencies (MHz)
Time Altitude Azimuth
UOSAT-12 30 Jul 15:48:20 15:52:02 23° 308° (NW) 15:55:47 437.025 FM, 437.400 FM
Oscar 19 30 Jul 15:56:31 15:58:49 13° 268° (W) 16:01:08 437.125 CW, 437.150 USB
AO-Echo 30 Jul 15:57:04 16:01:37 29° 264° (W) 16:06:12 ?
Gurwin Techsat 1B 30 Jul 15:58:14 16:03:32 75° 258° (WSW) 16:08:52 435.225 FM
Uosat F 30 Jul 16:17:31 16:21:33 25° 68° (ENE) 16:25:35 435.120 FM
KITSAT 1 30 Jul 16:25:01 16:33:09 84° 63° (ENE) 16:41:12 435.175 FM
JAS-1B 30 Jul 17:09:27 17:16:24 26° 270° (W) 17:24:03 435.800 - 435.900 CW/SSB
TMSAT-1 30 Jul 17:14:28 17:18:09 19° 266° (W) 17:21:51 436.925 FM
OPAL 30 Jul 17:17:59 17:22:46 40° 101° (E) 17:27:35 ?
Saudisat 1A 30 Jul 17:24:06 17:28:31 88° 60° (ENE) 17:32:54 436.775 MHz
AO-7 30 Jul 17:28:09 17:36:30 76° 254° (WSW) 17:44:54 29.400 - 29.500 MHz
Uosat F 30 Jul 17:55:40 18:00:08 32° 262° (W) 18:04:37 435.120 FM
RS-15 30 Jul 18:06:42 18:10:24 12° 344° (NNW) 18:14:07 29.354 - 29.394 USB, Beacon 29.352 USB
KITSAT 1 30 Jul 18:23:02 18:27:29 16° 259° (W) 18:31:57 435.175 FM
JAS-2 30 Jul 18:45:06 18:52:43 59° 73° (ENE) 18:59:54 435.800 - 435.900 CW/SSB, 435.910 FM
OPAL 30 Jul 18:57:36 19:01:21 21° 295° (WNW) 19:05:07 ?
Hamsat 30 Jul 19:08:51 19:13:00 68° 259° (W) 19:17:11 145.90 MHz
AO-7 30 Jul 19:28:39 19:30:20 11° 270° (W) 19:32:01 29.400 - 29.500 MHz
STRAND 1 30 Jul 19:44:22 19:48:48 30° 97° (E) 19:53:13 ?
SO-67 30 Jul 19:56:01 19:59:24 54° 76° (ENE) 20:02:48 435.3500 MHz FM
HO-68 30 Jul 20:10:39 20:13:39 13° 57° (ENE) 20:16:38 435.675 MHz FM
RS-15 30 Jul 20:24:46 20:30:07 14° 23° (NNE) 20:35:30 29.354 - 29.394 USB, Beacon 29.352 USB
JAS-2 30 Jul 20:31:42 20:37:52 25° 265° (W) 20:43:49 435.800 - 435.900 CW/SSB, 435.910 FM
SO-50 30 Jul 20:51:45 20:54:17 14° 47° (NE) 20:56:51 436.795 FM
MaSat-1 30 Jul 21:10:48 21:14:27 41° 106° (ESE) 21:18:43 437.345 MHz
STRAND 1 30 Jul 21:23:38 21:27:50 26° 291° (WNW) 21:32:01 ?
UKube-1 30 Jul 21:32:42 21:36:22 27° 70° (ENE) 21:40:02 145.840 MHz, 145.915 MHz
HO-68 30 Jul 21:53:04 22:00:14 81° 73° (ENE) 22:07:25 435.675 MHz FM
Oscar 11 30 Jul 22:15:21 22:19:21 39° 73° (ENE) 22:23:21 145.825 FM, Beacon 2401.500 USB
SO-50 30 Jul 22:30:32 22:35:17 68° 243° (WSW) 22:40:05 436.795 FM
RS-15 30 Jul 22:35:37 22:46:13 48° 53° (NE) 22:57:08 29.354 - 29.394 USB, Beacon 29.352 USB
UOSAT-12 30 Jul 22:42:12 22:44:24 13° 46° (NE) 22:46:35 437.025 FM, 437.400 FM
FUNcube-1 30 Jul 22:42:43 22:46:23 28° 72° (ENE) 22:50:00 145.950 - 145.970 MHz USB
AO-40 30 Jul 22:43:10 04:48:24 46° 182° (S) 10:52:11 Beacon 2401.320
MaSat-1 30 Jul 22:49:30 22:52:06 16° 307° (NW) 22:54:54 437.345 MHz
UKube-1 30 Jul 23:09:09 23:12:30 22° 264° (W) 23:15:52 145.840 MHz, 145.915 MHz
ISS 30 Jul 23:24:23 23:27:41 71° 318° (NW) 23:31:01 145.800 FM
HO-68 30 Jul 23:44:53 23:48:33 15° 268° (W) 23:52:13 435.675 MHz FM
Oscar 11 30 Jul 23:53:24 23:55:39 14° 267° (W) 23:57:55 145.825 FM, Beacon 2401.500 USB
FUNcube-1 31 Jul 00:19:35 00:22:44 20° 265° (W) 00:25:51 145.950 - 145.970 MHz USB
UOSAT-12 31 Jul 00:20:21 00:25:04 73° 243° (WSW) 00:29:41 437.025 FM, 437.400 FM
Sapphire 31 Jul 00:23:21 00:28:09 34° 109° (ESE) 00:32:58 437.095 MHz 1200 baud AX-25 AFSK
RS-15 31 Jul 00:48:08 00:58:24 45° 251° (WSW) 01:09:06 29.354 - 29.394 USB, Beacon 29.352 USB
PCSat 31 Jul 00:55:50 01:01:12 77° 114° (ESE) 01:06:38 145.825 MHz
ISS 31 Jul 01:04:12 01:04:55 11° 334° (NNW) 01:05:38 145.800 FM
Oscar 10/S400 31 Jul 01:09:54 01:40:02 76° 182° (S) 11:19:54 145.825 - 145.975 CW/USB, Beacon 145.810 USB
Sapphire 31 Jul 02:06:56 02:11:32 28° 304° (NW) 02:16:10 437.095 MHz 1200 baud AX-25 AFSK
Oscar 19 31 Jul 02:30:00 02:34:25 28° 97° (E) 02:38:50 437.125 CW, 437.150 USB
AO-Echo 31 Jul 02:32:03 02:33:32 11° 91° (E) 02:35:00 ?
PCSat 31 Jul 02:42:23 02:45:12 14° 311° (NW) 02:48:03 145.825 MHz
Oscar 16 31 Jul 02:58:15 03:03:21 58° 101° (E) 03:08:26 437.025 USB, Beacon 2401.1428
JAS-1B 31 Jul 03:09:34 03:16:40 27° 90° (E) 03:22:53 435.800 - 435.900 CW/SSB
ITAMSAT 1 31 Jul 03:23:51 03:28:45 42° 99° (E) 03:33:37 435.822 SSB
Uribyol 2 31 Jul 03:42:32 03:47:42 72° 102° (ESE) 03:52:50 436.500 FM
AO-27 31 Jul 03:43:29 03:48:39 70° 102° (ESE) 03:53:47 436.795 MHz FM
TMSAT-1 31 Jul 03:53:20 03:57:31 24° 95° (E) 04:01:41 436.925 FM
PANSAT 31 Jul 03:55:45 03:58:25 18° 162° (SSE) 04:01:06 not established
AO-Echo 31 Jul 04:07:47 04:12:43 61° 286° (WNW) 04:17:28 ?
Oscar 19 31 Jul 04:09:16 04:13:39 29° 291° (WNW) 04:18:03 437.125 CW, 437.150 USB
Gurwin Techsat 1B 31 Jul 04:18:22 04:23:37 60° 101° (E) 04:28:50 435.225 FM
OPAL 31 Jul 04:29:31 04:34:13 46° 71° (ENE) 04:38:56 ?
Oscar 16 31 Jul 04:39:25 04:42:10 15° 295° (WNW) 04:44:55 437.025 USB, Beacon 2401.1428
KITSAT 1 31 Jul 04:57:31 05:02:09 17° 101° (ESE) 05:06:45 435.175 FM
JAS-1B 31 Jul 04:58:51 05:07:44 59° 290° (WNW) 05:15:14 435.800 - 435.900 CW/SSB
ITAMSAT 1 31 Jul 05:04:17 05:07:54 20° 294° (WNW) 05:11:30 435.822 SSB
Uribyol 2 31 Jul 05:24:41 05:26:30 12° 297° (WNW) 05:28:20 436.500 FM
AO-27 31 Jul 05:25:31 05:27:31 12° 297° (WNW) 05:29:30 436.795 MHz FM
TMSAT-1 31 Jul 05:32:41 05:37:27 35° 289° (WNW) 05:42:12 436.925 FM
AO-7 31 Jul 05:34:16 05:42:14 48° 102° (ESE) 05:50:07 29.400 - 29.500 MHz
PANSAT 31 Jul 05:34:40 05:38:10 33° 174° (S) 05:41:40 not established
ISS 31 Jul 05:56:26 05:59:15 24° 35° (NE) 06:02:04 145.800 FM
Gurwin Techsat 1B 31 Jul 06:00:11 06:03:01 15° 296° (WNW) 06:05:50 435.225 FM
Uosat F 31 Jul 06:06:32 06:11:33 76° 285° (WNW) 06:16:32 435.120 FM
OPAL 31 Jul 06:10:19 06:13:17 16° 264° (W) 06:16:16 ?
KITSAT 1 31 Jul 06:48:24 06:56:31 83° 297° (WNW) 07:04:40 435.175 FM
JAS-1B 31 Jul 06:54:03 06:55:59 11° 311° (NW) 06:57:51 435.800 - 435.900 CW/SSB
STRAND 1 31 Jul 06:56:46 07:01:12 30° 70° (ENE) 07:05:39 ?
Hamsat 31 Jul 06:58:38 07:02:21 27° 97° (E) 07:06:03 145.90 MHz
MaSat-1 31 Jul 07:09:22 07:14:30 53° 64° (ENE) 07:19:15 437.345 MHz
PANSAT 31 Jul 07:14:33 07:18:01 32° 187° (S) 07:21:29 not established
Saudisat 1A 31 Jul 07:26:55 07:31:14 57° 116° (ESE) 07:35:34 436.775 MHz
AO-7 31 Jul 07:27:30 07:34:41 34° 298° (WNW) 07:41:50 29.400 - 29.500 MHz
ISS 31 Jul 07:33:02 07:35:56 27° 230° (SW) 07:38:50 145.800 FM
JAS-2 31 Jul 07:45:06 07:50:45 63° 101° (E) 07:55:55 435.800 - 435.900 CW/SSB, 435.910 FM
Hamsat 31 Jul 08:34:54 08:38:07 21° 290° (WNW) 08:41:21 145.90 MHz
STRAND 1 31 Jul 08:36:03 08:40:19 26° 263° (W) 08:44:36 ?
KITSAT 1 31 Jul 08:47:51 08:53:07 18° 317° (NW) 08:58:24 435.175 FM
MaSat-1 31 Jul 08:48:19 08:51:13 15° 260° (W) 08:54:01 437.345 MHz
PANSAT 31 Jul 08:55:17 08:57:44 16° 199° (SSW) 09:00:12 not established
SO-67 31 Jul 08:56:25 08:59:52 67° 283° (WNW) 09:03:18 435.3500 MHz FM
Saudisat 1A 31 Jul 09:08:47 09:11:09 14° 312° (NW) 09:13:32 436.775 MHz
Sapphire 31 Jul 09:16:12 09:19:02 14° 49° (NE) 09:21:52 437.095 MHz 1200 baud AX-25 AFSK
HO-68 31 Jul 09:26:49 09:31:23 18° 93° (E) 09:35:56 435.675 MHz FM
JAS-2 31 Jul 09:32:21 09:35:04 14° 299° (WNW) 09:37:42 435.800 - 435.900 CW/SSB, 435.910 FM
PCSat 31 Jul 09:48:02 09:52:41 28° 56° (NE) 09:57:17 145.825 MHz
Sapphire 31 Jul 10:57:37 11:03:03 77° 246° (WSW) 11:08:26 437.095 MHz 1200 baud AX-25 AFSK
UKube-1 31 Jul 10:59:59 11:04:21 85° 103° (ESE) 11:08:41 145.840 MHz, 145.915 MHz
HO-68 31 Jul 11:12:28 11:19:33 69° 288° (WNW) 11:26:37 435.675 MHz FM
PCSat 31 Jul 11:31:13 11:36:04 34° 251° (WSW) 11:40:53 145.825 MHz
Oscar 11 31 Jul 11:42:26 11:46:42 58° 285° (WNW) 11:50:58 145.825 FM, Beacon 2401.500 USB
FUNcube-1 31 Jul 12:10:58 12:15:10 79° 283° (WNW) 12:19:26 145.950 - 145.970 MHz USB
SO-50 31 Jul 12:41:55 12:46:22 83° 299° (WNW) 12:50:54 436.795 FM
RS-15 31 Jul 12:54:45 13:05:00 43° 108° (ESE) 13:14:58 29.354 - 29.394 USB, Beacon 29.352 USB
HO-68 31 Jul 13:04:42 13:05:57 11° 305° (NW) 13:07:13 435.675 MHz FM
AO-Echo 31 Jul 13:41:15 13:43:22 12° 63° (ENE) 13:45:29 ?
Oscar 19 31 Jul 13:43:31 13:47:48 28° 69° (ENE) 13:52:07 437.125 CW, 437.150 USB
JAS-1B 31 Jul 13:49:15 13:55:23 20° 56° (NE) 14:01:47 435.800 - 435.900 CW/SSB
Oscar 16 31 Jul 14:11:33 14:16:32 57° 74° (ENE) 14:21:34 437.025 USB, Beacon 2401.1428
AO-40 31 Jul 14:14:03 14:26:57 17° 208° (SSW) 14:32:30 Beacon 2401.320
UOSAT-12 31 Jul 14:27:43 14:32:16 83° 118° (ESE) 14:36:57 437.025 FM, 437.400 FM
ITAMSAT 1 31 Jul 14:38:11 14:43:06 45° 72° (ENE) 14:48:03 435.822 SSB
KITSAT 1 31 Jul 14:46:39 14:53:14 27° 49° (NE) 14:59:45 435.175 FM
Uribyol 2 31 Jul 14:56:38 15:01:49 74° 75° (ENE) 15:07:00 436.500 FM
AO-27 31 Jul 14:57:49 15:03:01 73° 75° (ENE) 15:08:14 436.795 MHz FM
RS-15 31 Jul 15:06:27 15:17:05 49° 307° (NW) 15:27:36 29.354 - 29.394 USB, Beacon 29.352 USB
TMSAT-1 31 Jul 15:10:35 15:14:55 26° 69° (ENE) 15:19:15 436.925 FM
AO-Echo 31 Jul 15:16:09 15:21:27 73° 258° (WSW) 15:26:46 ?
Oscar 19 31 Jul 15:22:42 15:27:02 28° 263° (W) 15:31:24 437.125 CW, 437.150 USB
